Weather History for Lone Rock, WI

Change the Weather History Date:

Saturday, December 22, 2012

  Actual Average Record
Temperature  
Mean Temperature 10 °F -  
Max Temperature 23 °F 26 °F 44 °F (2001)
Min Temperature -2 °F 12 °F -16 °F (2000)
Degree Days  
Heating Degree Days 54    
Moisture  
Dew Point 2 °F    
Average Humidity 81    
Maximum Humidity 88    
Minimum Humidity 65    
Precipitation  
Precipitation 0.00 in - - ()
Sea Level Pressure  
Sea Level Pressure 30.11 in    
Wind  
Wind Speed 1 mph (East)    
Max Wind Speed 5 mph    
Max Gust Speed -    
Visibility 7 miles    
Events      
Averages and records for this station are not official NWS values.
T = Trace of Precipitation, MM = Missing Value Source: NWS Daily Summary

Daily Weather History Graph

Daily Weather History Graph

Search for Another Location

Airport:

Trip Planner

Search our weather history database for the weather conditions in past years. The results will help you decide how hot, cold, wet, or windy it might be!

Date:

Astronomy

Dec. 22, 2012 Rise Set
Actual Time 7:30 AM CST 4:29 PM CST
Civil Twilight 6:57 AM CST 5:01 PM CST
Nautical Twilight 6:21 AM CST 5:37 PM CST
Astronomical Twilight 5:46 AM CST 6:12 PM CST
Moon 12:51 PM CST (12/22) 2:10 AM CST (12/22)
Length of Visible Light 10h 04m
Length of Day
8h 58m
Waxing Gibbous, 74% of the Moon is Illuminated
Dec 22
Waxing Gibbous
Dec 28
Full
Jan 4
Last Quarter
Jan 11
New
Jan 18
First Quarter

Hourly Weather History & Observations

Time (CST) Temp. Windchill Dew Point Humidity Pressure Visibility Wind Dir Wind Speed Gust Speed Precip Events Conditions
12:56 AM 1.9 °F - -2.9 °F 80% 30.24 in 8.0 mi Calm Calm - N/A   Clear
1:56 AM -0.9 °F - -5.1 °F 83% 30.25 in 8.0 mi Calm Calm - N/A   Clear
2:56 AM 1.9 °F - -2.9 °F 80% 30.25 in 6.0 mi Calm Calm - N/A   Haze
3:56 AM -0.9 °F - -5.1 °F 83% 30.23 in 8.0 mi Calm Calm - N/A   Clear
4:56 AM -0.9 °F - -5.1 °F 83% 30.23 in 9.0 mi Calm Calm - N/A   Clear
5:56 AM -2.0 °F - -6.0 °F 83% 30.23 in 9.0 mi Calm Calm - N/A   Clear
6:56 AM -2.9 °F - -7.1 °F 82% 30.23 in 8.0 mi Calm Calm - N/A   Clear
7:56 AM -2.0 °F - -6.0 °F 83% 30.23 in 6.0 mi Calm Calm - N/A   Clear
8:56 AM 1.0 °F - -2.0 °F 87% 30.22 in 6.0 mi Calm Calm - N/A   Clear
9:56 AM 6.1 °F - 1.9 °F 83% 30.21 in 4.0 mi Calm Calm - N/A   Clear
10:56 AM 10.0 °F - 6.1 °F 84% 30.17 in 6.0 mi Calm Calm - N/A   Clear
11:56 AM 14.0 °F 8.2 °F 9.0 °F 80% 30.13 in 8.0 mi ESE 3.5 mph - N/A   Clear
12:56 PM 18.0 °F 12.7 °F 12.0 °F 78% 30.10 in 7.0 mi East 3.5 mph - N/A   Clear
1:56 PM 21.0 °F 16.2 °F 12.9 °F 71% 30.07 in 9.0 mi East 3.5 mph - N/A   Clear
2:56 PM 23.0 °F 18.4 °F 12.9 °F 65% 30.05 in 10.0 mi East 3.5 mph - N/A   Clear
3:56 PM 21.9 °F - 14.0 °F 72% 30.05 in 10.0 mi Calm Calm - N/A   Clear
4:56 PM 18.0 °F 12.7 °F 10.0 °F 71% 30.02 in 9.0 mi ENE 3.5 mph - N/A   Clear
5:56 PM 15.1 °F 7.7 °F 9.0 °F 77% 30.01 in 10.0 mi ENE 4.6 mph - N/A   Clear
6:56 PM 10.9 °F - 6.1 °F 81% 30.02 in 10.0 mi Calm Calm - N/A   Clear
7:56 PM 8.1 °F - 3.9 °F 83% 30.03 in 9.0 mi Calm Calm - N/A   Clear
8:56 PM 9.0 °F 2.4 °F 5.0 °F 84% 30.03 in 7.0 mi WSW 3.5 mph - N/A   Clear
9:56 PM 3.9 °F - -0.0 °F 84% 30.02 in 6.0 mi Calm Calm - N/A   Clear
10:56 PM 1.9 °F - -0.9 °F 88% 30.01 in 5.0 mi Calm Calm - N/A   Clear
11:36 PM 3.2 °F - -0.4 °F 85% 29.97 in 2.5 mi Calm Calm - N/A   Clear
11:45 PM 3.2 °F - -0.4 °F 85% 29.97 in 5.0 mi Calm Calm - N/A   Haze
11:56 PM 3.9 °F - -0.0 °F 84% 30.00 in 5.0 mi Calm Calm - N/A   Clear